MST,Max TemperatureF,Mean TemperatureF,Min TemperatureF,Max Dew PointF,MeanDew PointF,Min DewpointF,Max Humidity, Mean Humidity, Min Humidity, Max Sea Level PressureIn, Mean Sea Level PressureIn, Min Sea Level PressureIn, Max VisibilityMiles, Mean VisibilityMiles, Min VisibilityMiles, Max Wind SpeedMPH, Mean Wind SpeedMPH, Max Gust SpeedMPH,PrecipitationIn, CloudCover, Events, WindDirDegrees
2012-12-1,65,46,26,26,21,18,72,44,18,30.05,29.90,29.71,10,10,10,24,8,31,0.00,0,,328
2012-12-2,62,40,17,24,17,14,85,50,18,30.08,29.86,29.51,10,10,10,23,7,29,0.00,0,,155
2012-12-3,55,36,17,24,15,10,74,40,19,30.24,29.94,29.50,10,10,10,35,15,44,0.00,0,,343
2012-12-4,53,33,12,21,14,8,84,55,25,30.45,30.31,30.20,10,10,10,15,5,18,0.00,0,,21
2012-12-5,68,46,23,25,20,14,66,41,18,30.19,29.95,29.76,10,10,10,17,5,23,0.00,0,,58
2012-12-6,45,32,19,32,23,14,75,60,43,30.00,29.92,29.77,10,10,10,13,8,16,0.01,3,Rain,99
2012-12-7,52,32,11,23,17,9,92,64,32,30.04,29.92,29.80,10,10,10,21,6,25,0.00,2,,48
2012-12-8,47,29,11,20,17,9,96,61,33,29.93,29.82,29.65,10,10,8,39,10,48,T,2,Snow,135
2012-12-9,23,8,-7,12,2,-10,83,63,45,30.37,30.17,29.91,10,10,3,31,19,38,T,4,Snow,351
2012-12-10,38,15,-8,18,3,-12,92,60,25,30.25,30.07,29.96,10,10,6,20,8,28,T,3,Snow,345
2012-12-11,36,21,6,21,13,4,100,77,33,30.14,30.00,29.91,10,8,2,16,7,22,0.01,4,Snow,285
2012-12-12,59,33,6,19,10,3,88,47,13,29.97,29.88,29.78,10,10,10,23,5,29,0.00,0,,271
2012-12-13,51,31,10,14,10,3,73,44,22,30.08,29.96,29.83,10,10,10,20,7,22,0.00,0,,135
2012-12-14,39,25,11,36,25,5,100,84,36,29.91,29.64,29.48,10,7,0,20,5,25,0.04,5,Fog-Rain,304
2012-12-15,43,28,13,30,21,11,95,78,55,29.80,29.74,29.64,10,10,10,15,7,18,0.00,3,,295
2012-12-16,41,24,7,30,24,6,100,92,51,29.91,29.75,29.68,10,6,0,14,4,16,0.00,5,Fog,144
2012-12-17,52,29,5,20,10,1,88,57,21,29.89,29.74,29.61,10,10,10,26,9,33,0.00,0,,310
2012-12-18,44,31,17,18,15,9,85,56,33,29.82,29.73,29.61,10,10,10,25,10,31,0.00,0,,62
2012-12-19,21,10,-1,16,13,-7,93,86,64,30.32,29.83,29.59,10,4,0,41,23,49,0.14,3,Fog-Snow,336
2012-12-20,39,17,-5,17,3,-10,81,59,33,30.43,30.36,30.30,10,10,10,15,6,17,0.00,0,,299
2012-12-21,47,25,2,24,8,-3,88,68,32,30.44,30.28,30.08,10,10,10,10,5,67,0.00,0,,354
2012-12-22,49,28,6,23,12,2,89,55,21,30.18,30.08,29.92,10,10,10,17,6,21,0.00,0,,322
2012-12-23,47,27,7,21,11,2,88,62,31,30.13,29.99,29.87,10,10,10,22,5,25,0.00,0,,351
2012-12-24,32,19,6,18,14,3,100,80,54,30.03,29.89,29.77,10,10,9,18,8,23,0.04,5,Snow,115
2012-12-25,13,0,-13,9,-1,-15,92,83,70,30.45,30.20,29.89,10,10,9,17,9,21,0.08,5,Snow,11
2012-12-26,14,1,-13,11,5,-16,100,90,78,30.27,29.93,29.64,10,10,10,20,6,22,T,4,Snow,156
2012-12-27,24,12,-1,16,8,-3,95,85,71,30.01,29.84,29.58,10,10,9,20,8,23,T,3,Snow,325
2012-12-28,26,11,-4,13,5,-4,95,78,58,30.27,30.15,30.03,10,10,10,26,7,30,0.00,1,,304
2012-12-29,32,11,-11,12,1,-15,88,65,39,30.45,30.27,30.04,10,10,10,15,6,20,0.00,0,,149
2012-12-30,32,15,-2,17,6,-5,91,71,43,30.20,30.09,29.98,10,10,10,13,5,15,0.00,0,,19
2012-12-31,21,10,-2,16,10,-3,100,89,80,30.24,30.07,29.91,10,10,9,12,4,13,T,7,Snow,2